Date String (YYYY-MM-DD hh:mm:ss) UTC,Instrument flags,Ambient pressure (hPa),Sample flow (lpm),Bypass flow (lpm),Sample temperature (°C),Ambient temperature (°C),ASC tube jacket temperature (°C),LED temperature (°C),Box temperature (°C),Sample RH (%),Span deviation,Mass concentration (μg/m³),Mass concentration (μg/m³),Mass concentration (μg/m³)
DateTimeUTC,F1_M11,P_M11,Q1_M11,Q2_M11,T1_M11,T2_M11,T3_M11,T4_M11,T5_M11,U1_M11,ZSPAN_M11,X0_M11,X2_M11,X1_M11
2021-10-31 20:00:00,,0829.7,5.00,0.00,26.1,25.3,00.0,35.2,27.9,16.5,0000.0,0009.90,0004.21,0003.85
2021-10-31 20:01:00,,0829.7,5.00,0.00,26.1,25.3,00.0,35.2,27.9,16.5,0000.0,0009.30,0004.20,0003.83
2021-10-31 20:02:00,,0829.7,5.00,0.00,26.1,25.3,00.0,35.2,27.9,16.4,0000.0,0009.11,0004.19,0003.82
2021-10-31 20:03:00,,0829.7,5.01,0.00,26.1,25.3,00.0,35.2,27.9,16.4,0000.0,0009.42,0004.19,0003.80
2021-10-31 20:04:00,,0829.6,5.00,0.00,26.1,25.3,00.0,35.2,27.9,16.5,0000.0,0009.25,0004.13,0003.78
2021-10-31 20:05:00,,0829.7,5.01,0.00,26.1,25.3,00.0,35.2,27.9,16.4,0000.0,0009.31,0004.13,0003.78
2021-10-31 20:06:00,,0829.7,5.01,0.00,26.1,25.3,00.0,35.2,27.9,16.4,0000.0,0009.49,0004.15,0003.77
2021-10-31 20:07:00,,0829.7,5.01,0.00,26.1,25.3,00.0,35.2,28.0,16.4,0000.0,0009.47,0004.13,0003.75
2021-10-31 20:08:00,,0829.7,5.01,0.00,26.1,25.3,00.0,35.2,28.0,16.3,0000.0,0009.17,0004.09,0003.72
2021-10-31 20:09:00,,0829.6,4.99,0.00,26.1,25.3,00.0,35.2,27.9,16.3,0000.0,0009.14,0004.07,0003.70
2021-10-31 20:10:00,,0829.7,5.00,0.00,26.1,25.3,00.0,35.2,27.9,16.4,0000.0,0009.22,0004.07,0003.70
2021-10-31 20:11:00,,0829.7,5.01,0.00,26.1,25.3,00.0,35.2,27.9,16.3,0000.0,0009.21,0004.07,0003.71
2021-10-31 20:12:00,,0829.6,5.01,0.00,26.1,25.3,00.0,35.1,27.9,16.3,0000.0,0009.29,0004.09,0003.72
2021-10-31 20:13:00,,0829.7,4.99,0.00,26.1,25.3,00.0,35.1,27.9,16.3,0000.0,0009.28,0004.05,0003.73
2021-10-31 20:14:00,,0829.7,5.01,0.00,26.1,25.3,00.0,35.1,27.9,16.3,0000.0,0008.97,0004.05,0003.73
2021-10-31 20:15:00,,0829.6,4.99,0.00,26.1,25.3,00.0,35.1,27.9,16.3,0000.0,0008.82,0004.05,0003.74
2021-10-31 20:16:00,,0829.6,5.00,0.00,26.1,25.3,00.0,35.1,27.9,16.4,0000.0,0008.46,0004.05,0003.75
2021-10-31 20:17:00,,0829.6,5.00,0.00,26.1,25.3,00.0,35.1,27.9,16.4,0000.0,0008.31,0004.06,0003.76
2021-10-31 20:18:00,,0829.6,5.00,0.00,26.1,25.3,00.0,35.1,27.9,16.4,0000.0,0008.29,0004.07,0003.78
2021-10-31 20:19:00,,0829.7,4.99,0.00,26.1,25.3,00.0,35.1,27.9,16.4,0000.0,0008.35,0004.09,0003.79
2021-10-31 20:20:00,,0829.6,5.01,0.00,26.1,25.3,00.0,35.1,27.9,16.3,0000.0,0008.34,0004.10,0003.79
2021-10-31 20:21:00,,0829.6,5.00,0.00,26.1,25.3,00.0,35.1,27.9,16.3,0000.0,0008.31,0004.11,0003.79
2021-10-31 20:22:00,,0829.5,5.01,0.00,26.1,25.3,00.0,35.1,27.9,16.4,0000.0,0008.33,0004.12,0003.78
2021-10-31 20:23:00,,0829.6,5.00,0.00,26.1,25.3,00.0,35.1,27.9,16.3,0000.0,0008.88,0004.14,0003.78
2021-10-31 20:24:00,,0829.6,5.00,0.00,26.1,25.3,00.0,35.1,27.9,16.4,0000.0,0008.49,0004.14,0003.79
2021-10-31 20:25:00,,0829.6,5.00,0.00,26.1,25.3,00.0,35.1,28.0,16.4,0000.0,0008.52,0004.15,0003.80
2021-10-31 20:26:00,,0829.5,5.01,0.00,26.1,25.3,00.0,35.1,28.0,16.4,0000.0,0008.23,0004.18,0003.80
2021-10-31 20:27:00,,0829.5,5.00,0.00,26.1,25.3,00.0,35.1,28.0,16.5,0000.0,0008.42,0004.20,0003.80
2021-10-31 20:28:00,,0829.5,5.00,0.00,26.1,25.3,00.0,35.1,28.0,16.4,0000.0,0008.60,0004.23,0003.80
2021-10-31 20:29:00,,0829.5,5.00,0.00,26.1,25.3,00.0,35.1,28.0,16.4,0000.0,0009.46,0004.27,0003.79
2021-10-31 20:30:00,,0829.5,5.00,0.00,26.1,25.3,00.0,35.1,28.0,16.3,0000.0,0009.67,0004.27,0003.80
2021-10-31 20:31:00,,0829.5,5.00,0.00,26.1,25.3,00.0,35.1,27.9,16.4,0000.0,0009.50,0004.29,0003.80
2021-10-31 20:32:00,,0829.5,5.00,0.00,26.1,25.3,00.0,35.1,27.9,16.3,0000.0,0009.54,0004.31,0003.81
2021-10-31 20:33:00,,0829.6,5.00,0.00,26.1,25.3,00.0,35.1,27.9,16.3,0000.0,0009.59,0004.33,0003.82
2021-10-31 20:34:00,,0829.6,4.99,0.00,26.1,25.3,00.0,35.1,27.9,16.4,0000.0,0009.03,0004.32,0003.83
2021-10-31 20:35:00,,0829.5,5.00,0.00,26.1,25.3,00.0,35.1,27.9,16.4,0000.0,0009.05,0004.34,0003.82
2021-10-31 20:36:00,,0829.5,4.99,0.00,26.1,25.3,00.0,35.1,28.0,16.4,0000.0,0008.99,0004.36,0003.82
2021-10-31 20:37:00,,0829.5,4.99,0.00,26.1,25.3,00.0,35.1,28.0,16.4,0000.0,0008.81,0004.35,0003.81
2021-10-31 20:38:00,,0829.5,5.00,0.00,26.1,25.3,00.0,35.1,27.9,16.4,0000.0,0008.55,0004.34,0003.82
2021-10-31 20:39:00,,0829.6,5.01,0.00,26.1,25.3,00.0,35.1,27.9,16.4,0000.0,0009.31,0004.37,0003.82
2021-10-31 20:40:00,,0829.5,5.00,0.00,26.1,25.3,00.0,35.1,27.9,16.4,0000.0,0008.71,0004.34,0003.82
2021-10-31 20:41:00,,0829.6,5.00,0.00,26.1,25.3,00.0,35.1,27.9,16.4,0000.0,0008.83,0004.35,0003.81
2021-10-31 20:42:00,,0829.6,5.00,0.00,26.1,25.3,00.0,35.1,27.9,16.3,0000.0,0009.32,0004.33,0003.81
2021-10-31 20:43:00,,0829.5,4.99,0.00,26.1,25.3,00.0,35.1,27.9,16.4,0000.0,0009.26,0004.32,0003.81
2021-10-31 20:44:00,,0829.5,5.01,0.00,26.1,25.3,00.0,35.1,27.9,16.4,0000.0,0009.30,0004.32,0003.80
2021-10-31 20:45:00,,0829.5,4.99,0.00,26.1,25.3,00.0,35.1,27.9,16.4,0000.0,0009.26,0004.33,0003.81
2021-10-31 20:46:00,,0829.5,5.01,0.00,26.1,25.3,00.0,35.1,27.9,16.4,0000.0,0009.23,0004.32,0003.82
2021-10-31 20:47:00,,0829.5,5.00,0.00,26.1,25.3,00.0,35.1,28.0,16.4,0000.0,0009.36,0004.35,0003.83
2021-10-31 20:48:00,,0829.6,4.99,0.00,26.1,25.3,00.0,35.1,27.9,16.4,0000.0,0009.41,0004.37,0003.83
2021-10-31 20:49:00,,0829.5,5.00,0.00,26.1,25.3,00.0,35.1,27.9,16.3,0000.0,0009.53,0004.40,0003.85
2021-10-31 20:50:00,,0829.5,5.00,0.00,26.1,25.3,00.0,35.1,27.9,16.3,0000.0,0008.82,0004.37,0003.88
2021-10-31 20:51:00,,0829.4,5.00,0.00,26.1,25.3,00.0,35.1,27.9,16.4,0000.0,0008.47,0004.36,0003.89
2021-10-31 20:52:00,,0829.5,5.01,0.00,26.1,25.3,00.0,35.1,27.9,16.4,0000.0,0008.13,0004.34,0003.89
2021-10-31 20:53:00,,0829.5,4.99,0.00,26.1,25.3,00.0,35.1,27.9,16.4,0000.0,0008.05,0004.36,0003.90
2021-10-31 20:54:00,,0829.5,5.00,0.00,26.1,25.3,00.0,35.1,27.9,16.4,0000.0,0008.83,0004.36,0003.91
2021-10-31 20:55:00,,0829.5,5.01,0.00,26.1,25.3,00.0,35.1,27.9,16.4,0000.0,0008.71,0004.33,0003.91
2021-10-31 20:56:00,,0829.5,4.99,0.00,26.1,25.3,00.0,35.1,27.9,16.3,0000.0,0008.66,0004.32,0003.91
2021-10-31 20:57:00,,0829.5,4.99,0.00,26.1,25.3,00.0,35.1,27.9,16.4,0000.0,0009.12,0004.34,0003.91
2021-10-31 20:58:00,,0829.4,5.00,0.00,26.1,25.3,00.0,35.1,28.0,16.3,0000.0,0009.13,0004.31,0003.90
2021-10-31 20:59:00,,0829.4,5.00,0.00,26.1,25.3,00.0,35.1,28.0,16.3,0000.0,0009.31,0004.31,0003.90
